DW4937 Weather Reports


Display with metric or nautical units.
time (UTC)temp
F
wind
direction
speed
MPH
gust
MPH
rain 1hr
in
rain 24hr
in
rain mn
in
humidity
%
barometer
mb
20180424205842 50 355 0.0 0.0 0.00 0.06 0.05 71 1014.5
20180424205344 51 355 0.0 0.0 0.00 0.06 0.05 71 1014.5
20180424204842 51 355 0.0 0.0 0.00 0.06 0.05 71 1014.5
20180424204342 51 355 0.0 0.0 0.00 0.06 0.05 71 1014.5
20180424203843 51 355 0.0 0.0 0.00 0.06 0.05 71 1014.6
20180424203344 51 355 0.0 0.0 0.00 0.06 0.05 71 1014.6
20180424202843 51 355 0.0 0.0 0.01 0.06 0.05 71 1014.7
20180424202343 51 355 0.0 0.0 0.01 0.06 0.05 71 1014.8
20180424201842 51 355 0.0 0.0 0.01 0.06 0.05 72 1014.8
20180424201344 52 355 0.0 0.0 0.01 0.06 0.05 73 1014.9
20180424200843 52 355 0.0 0.0 0.01 0.06 0.05 73 1014.9
20180424200342 53 355 0.0 0.0 0.01 0.06 0.05 74 1015.0
20180424195843 53 355 0.0 0.0 0.02 0.06 0.05 74 1015.1
20180424195343 54 355 0.0 0.0 0.02 0.06 0.05 74 1015.1
20180424194843 54 0 0.0 0.0 0.02 0.06 0.05 74 1015.2
20180424194344 55 0 0.0 0.0 0.02 0.06 0.05 72 1015.2
20180424193842 55 59 0.0 0.0 0.03 0.06 0.05 72 1015.3
20180424193343 54 55 0.0 0.0 0.03 0.06 0.05 73 1015.5
20180424192843 54 56 0.0 0.0 0.02 0.05 0.05 73 1015.6
20180424192344 54 56 0.0 0.0 0.02 0.05 0.04 73 1015.6
20180424191844 55 55 0.0 0.0 0.02 0.05 0.04 74 1015.7
20180424191343 55 55 0.0 0.0 0.02 0.05 0.04 74 1015.9
20180424190842 55 55 0.0 0.0 0.02 0.05 0.04 75 1015.9
20180424190344 55 55 0.0 0.0 0.02 0.05 0.04 75 1016.0
20180424185842 55 55 0.0 0.0 0.01 0.04 0.03 75 1016.1
20180424185342 55 55 0.0 0.0 0.01 0.04 0.03 76 1016.2
20180424184842 55 55 0.0 0.0 0.01 0.04 0.03 77 1016.2
20180424184344 55 55 0.0 0.0 0.01 0.04 0.03 76 1016.2
20180424183842 55 55 0.0 0.0 0.00 0.03 0.02 77 1016.3
20180424183344 55 55 0.0 0.0 0.00 0.03 0.02 78 1016.3
20180424182843 55 55 0.0 0.0 0.00 0.03 0.02 79 1016.4
20180424182344 55 55 0.0 0.0 0.00 0.03 0.02 79 1016.5
20180424181842 55 55 0.0 0.0 0.00 0.03 0.02 79 1016.5
20180424181344 55 60 0.0 0.0 0.00 0.03 0.02 79 1016.6
20180424180842 55 59 0.0 0.0 0.00 0.03 0.02 79 1016.7
20180424180344 55 59 0.0 0.0 0.00 0.03 0.02 79 1016.7
20180424175842 56 66 0.0 0.0 0.00 0.03 0.02 79 1016.8
20180424175342 56 66 0.0 0.0 0.00 0.03 0.02 79 1016.8
20180424174842 56 63 0.0 0.0 0.00 0.03 0.02 79 1016.8
20180424174343 56 63 0.0 0.0 0.00 0.03 0.02 79 1016.8
20180424173842 56 63 0.0 0.0 0.00 0.03 0.02 79 1016.8
20180424173343 56 59 0.0 0.0 0.00 0.03 0.02 79 1016.8
20180424172843 56 59 0.0 0.0 0.00 0.03 0.02 79 1016.9
20180424172344 56 60 0.0 0.0 0.00 0.03 0.02 79 1017.0
20180424171842 56 61 0.0 0.0 0.00 0.03 0.02 79 1017.0
20180424171344 56 61 0.0 0.0 0.00 0.03 0.02 79 1017.1
20180424170844 56 62 0.0 0.0 0.00 0.03 0.02 79 1017.0
20180424170343 56 57 0.0 0.0 0.00 0.03 0.02 79 1017.1
20180424165843 56 57 0.0 0.0 0.00 0.03 0.02 79 1017.1
20180424165344 56 57 0.0 0.0 0.01 0.03 0.02 79 1017.2
20180424164844 57 57 0.0 0.0 0.01 0.03 0.02 78 1017.1
20180424164342 57 56 0.0 0.0 0.01 0.03 0.02 78 1017.1
20180424163842 57 53 0.0 0.0 0.01 0.03 0.02 77 1017.2
20180424163343 57 53 0.0 0.0 0.01 0.03 0.02 78 1017.2
20180424162843 57 53 0.0 0.0 0.01 0.03 0.02 77 1017.3
20180424162344 57 53 0.0 0.0 0.01 0.03 0.02 77 1017.4
20180424161842 56 53 0.0 0.0 0.01 0.03 0.02 78 1017.4
20180424161343 56 49 0.0 0.0 0.01 0.03 0.02 78 1017.4
20180424160843 56 48 0.0 0.0 0.01 0.03 0.02 79 1017.4
20180424160344 56 48 0.0 0.0 0.01 0.03 0.02 79 1017.4
20180424155844 56 48 0.0 0.0 0.01 0.03 0.02 79 1017.4
20180424155342 55 48 0.0 0.0 0.00 0.02 0.01 79 1017.4
20180424154843 55 48 0.0 0.0 0.00 0.02 0.01 79 1017.5
20180424154343 55 59 0.0 0.0 0.00 0.02 0.01 79 1017.6
20180424153843 55 59 0.0 0.0 0.00 0.02 0.01 79 1017.6
20180424153344 55 56 0.0 0.0 0.00 0.02 0.01 79 1017.7
20180424152844 55 55 0.0 0.0 0.00 0.02 0.01 79 1017.7
20180424152344 56 54 0.0 0.0 0.00 0.02 0.01 78 1017.8
20180424151843 56 57 0.0 0.0 0.00 0.02 0.01 79 1017.8
20180424151347 56 57 0.0 0.0 0.00 0.02 0.01 78 1017.8
20180424150843 56 111 0.0 0.0 0.00 0.02 0.01 78 1017.8
20180424150342 56 63 0.0 0.0 0.00 0.02 0.01 78 1018.0
20180424145842 56 80 0.0 0.0 0.00 0.02 0.01 78 1018.0
20180424145343 56 60 0.0 0.0 0.00 0.02 0.01 79 1018.0
20180424144844 55 60 0.0 0.0 0.00 0.02 0.01 79 1018.1
20180424144342 55 63 0.0 0.0 0.00 0.02 0.01 79 1018.2
20180424143843 55 65 0.0 0.0 0.00 0.02 0.01 78 1018.2
20180424143340 54 71 0.0 0.0 0.00 0.02 0.01 77 1018.3
20180424142841 54 51 0.0 0.0 0.00 0.02 0.01 76 1018.3
20180424142341 54 51 0.0 0.0 0.00 0.02 0.01 75 1018.4
20180424141842 54 51 0.0 0.0 0.01 0.02 0.01 75 1018.5
20180424141340 54 51 0.0 0.0 0.01 0.02 0.01 75 1018.5
20180424140840 54 67 0.0 0.0 0.01 0.02 0.01 73 1018.6
20180424140341 54 67 0.0 0.0 0.01 0.02 0.01 74 1018.7
20180424135839 54 67 0.0 0.0 0.01 0.02 0.01 74 1018.8
20180424135338 54 67 0.0 0.0 0.01 0.02 0.01 75 1018.8
20180424134834 54 64 0.0 0.0 0.01 0.02 0.01 76 1018.9
20180424134331 54 65 0.0 0.0 0.01 0.02 0.01 76 1019.0
20180424133828 54 75 0.0 0.0 0.01 0.02 0.01 76 1019.1
20180424133330 54 71 0.0 0.0 0.01 0.02 0.01 76 1019.1
20180424132828 54 72 0.0 0.0 0.01 0.02 0.01 77 1019.1
20180424132329 54 72 0.0 0.0 0.01 0.02 0.01 78 1019.1
20180424131828 54 72 0.0 0.0 0.00 0.01 0.01 79 1019.2
20180424131328 54 72 0.0 0.0 0.00 0.01 0.00 79 1019.2
20180424130828 55 61 0.0 0.0 0.00 0.01 0.00 80 1019.2
20180424130326 55 59 0.0 0.0 0.00 0.01 0.00 80 1019.2
20180424125828 55 90 0.0 0.0 0.00 0.01 0.00 79 1019.2
20180424125328 55 52 0.0 0.0 0.00 0.01 0.00 79 1019.1
20180424124827 56 52 0.0 0.0 0.00 0.01 0.00 79 1019.1
20180424124327 56 51 0.0 0.0 0.00 0.01 0.00 78 1019.1
20180424123825 56 51 0.0 0.0 0.00 0.01 0.00 78 1019.1
20180424123325 56 48 0.0 0.0 0.00 0.01 0.00 77 1019.1
20180424122824 56 47 0.0 0.0 0.00 0.01 0.00 76 1018.9
20180424122326 56 47 0.0 0.0 0.00 0.01 0.00 76 1018.9
20180424121824 56 47 0.0 0.0 0.00 0.01 0.00 76 1018.9
20180424121322 56 47 0.0 0.0 0.00 0.01 0.00 77 1018.9
20180424120824 56 47 0.0 0.0 0.00 0.01 0.00 77 1018.9
20180424120324 56 47 0.0 0.0 0.00 0.01 0.00 77 1018.9
20180424115823 56 47 0.0 0.0 0.00 0.01 0.00 77 1018.9
20180424115322 56 47 0.0 0.0 0.00 0.01 0.00 77 1018.9
20180424114824 56 47 0.0 0.0 0.00 0.01 0.00 77 1018.9
20180424114323 56 47 0.0 0.0 0.00 0.01 0.00 77 1018.8
20180424113823 56 52 0.0 0.0 0.00 0.01 0.00 78 1018.7
20180424113322 56 52 0.0 0.0 0.00 0.01 0.00 78 1018.8
20180424112823 56 19 0.0 0.0 0.00 0.01 0.00 78 1018.8
20180424112321 56 19 0.0 0.0 0.00 0.01 0.00 78 1018.8
20180424111821 55 19 0.0 0.0 0.00 0.01 0.00 79 1018.8
20180424111322 55 0 0.0 0.0 0.00 0.01 0.00 79 1018.8
20180424110820 55 355 0.0 0.0 0.00 0.01 0.00 79 1018.8
20180424110320 54 355 0.0 0.0 0.00 0.01 0.00 79 1018.8
20180424105820 54 355 0.0 0.0 0.00 0.01 0.00 79 1018.8
20180424105321 54 355 0.0 0.0 0.00 0.01 0.00 79 1018.7
20180424104820 53 355 0.0 0.0 0.00 0.01 0.00 79 1018.8
20180424104320 53 355 0.0 0.0 0.00 0.01 0.00 79 1018.8
20180424103819 53 355 0.0 0.0 0.00 0.01 0.00 79 1018.8
20180424103320 53 355 0.0 0.0 0.00 0.01 0.00 79 1018.9
20180424102819 53 355 0.0 0.0 0.00 0.01 0.00 79 1018.8
20180424102320 53 355 0.0 0.0 0.00 0.01 0.00 79 1018.8
20180424101819 52 355 0.0 0.0 0.00 0.01 0.00 79 1018.9
20180424101319 52 355 0.0 0.0 0.00 0.01 0.00 79 1018.9
20180424100818 52 355 0.0 0.0 0.00 0.01 0.00 79 1018.8
20180424100318 52 355 0.0 0.0 0.00 0.01 0.00 80 1018.8
20180424095817 52 355 0.0 0.0 0.00 0.01 0.00 79 1018.8
20180424095315 52 355 0.0 0.0 0.00 0.01 0.00 79 1018.8
20180424094814 53 355 0.0 0.0 0.00 0.01 0.00 79 1018.8
20180424094316 53 355 0.0 0.0 0.00 0.01 0.00 79 1018.8
20180424093812 52 355 0.0 0.0 0.00 0.01 0.00 79 1018.8
20180424093313 52 355 0.0 0.0 0.00 0.01 0.00 79 1018.9
20180424092814 52 355 0.0 0.0 0.00 0.01 0.00 79 1018.9
20180424092314 52 355 0.0 0.0 0.00 0.01 0.00 79 1018.8
20180424091813 52 355 0.0 0.0 0.00 0.01 0.00 79 1018.8
20180424091311 52 355 0.0 0.0 0.00 0.01 0.00 79 1018.8
20180424090810 52 355 0.0 0.0 0.00 0.01 0.00 79 1018.9
20180424090311 52 355 0.0 0.0 0.00 0.01 0.00 79 1018.9
20180424085810 52 355 0.0 0.0 0.00 0.01 0.00 79 1018.9
20180424085310 52 355 0.0 0.0 0.00 0.01 0.00 79 1019.0
20180424084810 52 355 0.0 0.0 0.00 0.01 0.00 79 1019.0
20180424084309 52 355 0.0 0.0 0.00 0.01 0.00 79 1019.0
20180424083809 53 355 0.0 0.0 0.00 0.01 0.00 79 1019.1
20180424083308 53 355 0.0 0.0 0.00 0.01 0.00 79 1019.2
20180424082808 53 355 0.0 0.0 0.00 0.01 0.00 79 1019.4
20180424082307 53 355 0.0 0.0 0.00 0.01 0.00 79 1019.5
20180424081806 53 355 0.0 0.0 0.00 0.01 0.00 79 1019.5
20180424081306 53 355 0.0 0.0 0.00 0.01 0.00 79 1019.5
20180424080806 53 355 0.0 0.0 0.00 0.01 0.00 79 1019.5
20180424080304 53 355 0.0 0.0 0.00 0.01 0.00 79 1019.5
20180424075805 53 355 0.0 0.0 0.00 0.01 0.00 79 1019.5
20180424075306 53 355 0.0 0.0 0.00 0.01 0.00 79 1019.5
20180424074804 52 355 0.0 0.0 0.00 0.01 0.00 79 1019.5
20180424074306 52 355 0.0 0.0 0.00 0.01 0.00 79 1019.6
20180424073805 52 355 0.0 0.0 0.00 0.01 0.00 79 1019.6
20180424073306 52 355 0.0 0.0 0.00 0.01 0.00 78 1019.6
20180424072806 51 355 0.0 0.0 0.00 0.01 0.00 78 1019.7
20180424072305 51 355 0.0 0.0 0.00 0.01 0.00 78 1019.7
20180424071804 51 355 0.0 0.0 0.00 0.01 0.00 79 1019.7
20180424071304 51 355 0.0 0.0 0.00 0.01 0.00 79 1019.7
20180424070802 51 355 0.0 0.0 0.00 0.01 0.00 79 1019.7
20180424070303 51 355 0.0 0.0 0.00 0.01 0.00 79 1019.8
20180424065800 51 355 0.0 0.0 0.00 0.01 0.00 79 1019.8
20180424065302 51 355 0.0 0.0 0.00 0.01 0.00 79 1019.9
20180424064759 51 355 0.0 0.0 0.00 0.01 0.00 79 1019.8
20180424064300 52 355 0.0 0.0 0.00 0.01 0.00 79 1019.9
20180424063759 52 355 0.0 0.0 0.00 0.01 0.00 79 1019.9
20180424063256 53 355 0.0 0.0 0.00 0.01 0.00 78 1019.9
20180424062755 53 355 0.0 0.0 0.00 0.01 0.00 78 1019.9
20180424062255 53 355 0.0 0.0 0.00 0.01 0.00 77 1020.0
20180424061754 53 355 0.0 0.0 0.00 0.01 0.00 77 1020.1
20180424061252 53 355 0.0 0.0 0.00 0.01 0.00 77 1020.1
20180424060752 53 355 0.0 0.0 0.00 0.01 0.00 77 1020.1
20180424060253 53 355 0.0 0.0 0.00 0.01 0.00 77 1020.0
20180424055753 53 355 0.0 0.0 0.00 0.01 0.00 77 1020.0
20180424055252 53 355 0.0 0.0 0.00 0.01 0.00 77 1020.1
20180424054751 53 355 0.0 0.0 0.00 0.01 0.00 77 1020.0
20180424054252 53 355 0.0 0.0 0.00 0.01 0.00 77 1020.2
20180424053751 53 355 0.0 0.0 0.00 0.01 0.00 77 1020.3
20180424053249 53 355 0.0 0.0 0.00 0.01 0.00 77 1020.4
20180424052749 53 355 0.0 0.0 0.00 0.01 0.00 77 1020.4
20180424052249 53 355 0.0 0.0 0.00 0.01 0.00 77 1020.4
20180424051750 53 355 0.0 0.0 0.00 0.01 0.00 77 1020.4
20180424051249 53 355 0.0 0.0 0.00 0.01 0.00 77 1020.4
20180424050749 53 355 0.0 0.0 0.00 0.01 0.00 77 1020.4
20180424050250 53 355 0.0 0.0 0.00 0.01 0.00 77 1020.4
20180424045747 53 355 0.0 0.0 0.00 0.01 0.00 76 1020.6
20180424045246 53 355 0.0 0.0 0.00 0.01 0.00 76 1020.7
20180424044748 52 355 0.0 0.0 0.00 0.01 0.00 75 1020.7
20180424044246 52 355 0.0 0.0 0.00 0.01 0.00 75 1020.7
20180424043748 52 355 0.0 0.0 0.00 0.01 0.00 75 1020.8
20180424043246 52 355 0.0 0.0 0.00 0.01 0.00 75 1020.8
20180424042748 51 355 0.0 0.0 0.00 0.01 0.00 76 1020.9
20180424042248 51 355 0.0 0.0 0.00 0.01 0.00 76 1020.9
20180424041746 51 355 0.0 0.0 0.00 0.01 0.00 77 1020.9
20180424041247 51 355 0.0 0.0 0.00 0.01 0.00 77 1021.0
20180424040745 51 355 0.0 0.0 0.00 0.01 0.00 77 1021.0
20180424040245 51 355 0.0 0.0 0.00 0.01 0.00 78 1021.0
20180424035742 51 355 0.0 0.0 0.00 0.01 0.01 78 1021.1
20180424035241 51 355 0.0 0.0 0.00 0.01 0.01 79 1021.0
20180424034741 51 355 0.0 0.0 0.00 0.01 0.01 79 1021.0
20180424034242 51 355 0.0 0.0 0.00 0.01 0.01 79 1021.1
20180424033742 51 355 0.0 0.0 0.00 0.01 0.01 79 1021.2
20180424033241 52 355 0.0 0.0 0.00 0.01 0.01 79 1021.2
20180424032743 52 355 0.0 0.0 0.00 0.01 0.01 79 1021.3
20180424032240 52 355 0.0 0.0 0.00 0.01 0.01 79 1021.3
20180424031741 53 355 0.0 0.0 0.00 0.01 0.01 79 1021.4
20180424031241 53 355 0.0 0.0 0.00 0.01 0.01 79 1021.4
20180424030742 53 355 0.0 0.0 0.00 0.01 0.01 79 1021.4
20180424030240 54 355 0.0 0.0 0.00 0.01 0.01 79 1021.4
20180424025740 54 163 0.0 0.0 0.01 0.01 0.01 79 1021.4
20180424025239 54 163 0.0 0.0 0.01 0.01 0.01 79 1021.5
20180424024739 54 163 0.0 0.0 0.01 0.01 0.01 79 1021.5
20180424024238 54 163 0.0 0.0 0.01 0.01 0.01 79 1021.5
20180424023739 55 163 0.0 0.0 0.01 0.01 0.01 79 1021.5
20180424023240 56 163 0.0 0.0 0.01 0.01 0.01 79 1021.5
20180424022739 56 169 0.0 0.0 0.01 0.01 0.01 79 1021.5
20180424022240 56 169 0.0 0.0 0.01 0.01 0.01 79 1021.5
20180424021739 56 169 0.0 0.0 0.01 0.01 0.01 79 1021.5
20180424021238 56 169 0.0 0.0 0.01 0.01 0.01 79 1021.4
20180424020737 56 169 0.0 0.0 0.01 0.01 0.01 79 1021.4
20180424020237 56 169 0.0 0.0 0.01 0.01 0.01 79 1021.2
20180424015738 56 169 0.0 0.0 0.00 0.00 0.00 78 1021.3
20180424015237 57 169 0.0 0.0 0.00 0.00 0.00 78 1021.2
20180424014737 57 169 0.0 0.0 0.00 0.00 0.00 77 1021.3
20180424014239 57 169 0.0 0.0 0.00 0.00 0.00 76 1021.3
20180424013735 58 169 0.0 0.0 0.00 0.00 0.00 75 1021.2
20180424013236 58 169 0.0 0.0 0.00 0.00 0.00 74 1021.2
20180424012736 58 169 0.0 0.0 0.00 0.00 0.00 72 1021.3
20180424012233 58 171 0.0 0.0 0.00 0.00 0.00 70 1021.3
20180424011733 58 167 0.0 0.0 0.00 0.00 0.00 69 1021.3
20180424011234 58 169 0.0 6.0 0.00 0.00 0.00 69 1021.2
20180424010733 57 171 0.0 6.0 0.00 0.00 0.00 70 1021.1
20180424010234 56 171 0.0 6.0 0.00 0.00 0.00 72 1021.2
20180424005733 53 174 0.0 6.0 0.00 0.00 0.00 77 1021.2
20180424005233 52 279 0.0 0.0 0.00 0.00 0.00 78 1021.1
20180424004733 52 279 0.0 0.0 0.00 0.00 0.00 78 1021.1
20180424004234 51 279 0.0 0.0 0.00 0.00 0.00 78 1021.0
20180424003731 51 279 0.0 0.0 0.00 0.00 0.00 77 1020.9
20180424003229 51 279 0.0 0.0 0.00 0.00 0.00 77 1020.9
20180424002729 51 279 0.0 0.0 0.00 0.00 0.00 77 1020.8
20180424002230 51 279 0.0 0.0 0.00 0.00 0.00 77 1020.7
20180424001729 52 279 0.0 0.0 0.00 0.00 0.00 77 1020.7
20180424001229 52 279 0.0 0.0 0.00 0.00 0.00 77 1020.7
20180424000728 52 279 0.0 0.0 0.00 0.00 0.00 77 1020.7
20180424000227 51 279 0.0 0.0 0.00 0.00 0.00 77 1020.7
20180423235726 51 279 0.0 0.0 0.00 0.00 0.00 78 1020.7
20180423235226 51 279 0.0 0.0 0.00 0.00 0.00 77 1020.6
20180423234724 50 279 0.0 2.0 0.00 0.00 0.00 78 1020.5
20180423234224 50 279 0.0 2.0 0.00 0.00 0.00 79 1020.4
20180423233725 50 279 0.0 2.0 0.00 0.00 0.00 79 1020.4
20180423233225 50 279 1.0 11.0 0.00 0.00 0.00 79 1020.5
20180423232724 50 279 1.0 11.0 0.00 0.00 0.00 79 1020.5
20180423232225 50 279 2.0 11.0 0.00 0.00 0.00 77 1020.5
20180423231724 51 281 2.0 11.0 0.00 0.00 0.00 77 1020.5
20180423231223 51 205 0.0 7.0 0.00 0.00 0.00 76 1020.1
20180423230723 51 355 0.0 0.0 0.00 0.00 0.00 76 1019.7
20180423230224 51 355 0.0 0.0 0.00 0.00 0.00 76 1019.8
20180423225723 51 355 0.0 0.0 0.00 0.00 0.00 76 1019.7
20180423225224 51 355 0.0 0.0 0.00 0.00 0.00 76 1019.6
20180423224722 51 355 0.0 0.0 0.00 0.00 0.00 75 1019.6
20180423224224 52 355 0.0 0.0 0.00 0.00 0.00 74 1019.6
20180423223725 52 355 0.0 0.0 0.00 0.00 0.00 74 1019.7
20180423223224 52 355 0.0 5.0 0.00 0.00 0.00 74 1019.7
20180423222724 52 355 0.0 5.0 0.00 0.00 0.00 75 1019.8
20180423222223 53 355 1.0 6.0 0.00 0.00 0.00 74 1019.8
20180423221722 53 355 2.0 6.0 0.00 0.00 0.00 73 1019.9
20180423221222 53 355 2.0 6.0 0.00 0.00 0.00 73 1019.9
20180423220722 53 355 3.0 7.0 0.00 0.00 0.00 74 1019.9
20180423220218 53 355 4.0 7.0 0.00 0.00 0.00 74 1019.9
20180423215718 53 355 3.0 7.0 0.00 0.00 0.00 75 1020.0
20180423215218 53 355 2.0 7.0 0.00 0.00 0.00 73 1020.0
20180423214719 53 355 4.0 7.0 0.00 0.00 0.00 73 1020.0
20180423214219 53 355 5.0 8.0 0.00 0.00 0.00 73 1020.0
20180423213718 54 355 5.0 8.0 0.00 0.00 0.00 73 1020.0
20180423213220 54 355 4.0 7.0 0.00 0.00 0.00 72 1020.0
20180423212717 54 355 4.0 8.0 0.00 0.00 0.00 72 1019.9
20180423212217 54 355 4.0 8.0 0.00 0.00 0.00 72 1019.9
20180423211717 55 355 5.0 8.0 0.00 0.00 0.00 71 1019.9
20180423211215 55 355 5.0 8.0 0.00 0.00 0.00 72 1019.9
20180423210716 55 355 4.0 8.0 0.00 0.00 0.00 71 1019.9
20180423210216 55 355 4.0 8.0 0.00 0.00 0.00 69 1019.9